#timestamp,LO_Frequency,Hit,StdDev 
1646427615.0,286047000.1,N
1646427615.9,286047000.1,N
1646427635.8,286047000.7,N
1646427655.6,286047000.7,N
1646427675.5,286047001.0,N
1646427695.3,286047001.8,N
1646427715.1,286047003.9,Y
1646427735.9,286047004.2,P
1646427755.7,286047004.2,N
1646427775.6,286047004.1,N
1646427795.4,286047001.2,N
1646427815.2,286047000.2,N
1646427835.1,286046998.6,N
1646427836.0,286046998.6,N
1646427855.8,286046998.4,N
1646427875.6,286047001.1,N
1646427895.5,286046999.5,N
1646427915.3,286046996.5,N
1646427935.2,286046996.5,N
1646427955.9,286046999.3,N
1646427975.7,286047000.6,N
1646427995.6,286047000.9,N
1646428015.4,286047000.0,N
1646428035.3,286047001.0,N
1646428055.1,286047002.0,N
1646428056.0,286047002.0,N
1646428075.8,286046998.6,N
1646428125.7,286047000.7,E
1646428135.6,286047000.0,N
1646428155.5,286047001.6,P
1646428175.3,286047002.7,P
1646428195.1,286047002.7,N
1646428215.9,286046998.3,N
1646428235.7,286046997.4,N
1646428255.5,286046996.8,N
1646428275.4,286046997.8,N
1646428295.2,286046996.7,N
1646428315.1,286046996.5,N
1646428316.0,286046996.5,N
1646428335.8,286046998.8,N
1646428355.7,286046997.0,N
1646428375.5,286046997.2,N
1646428395.3,286047000.7,N
1646428415.2,286047000.4,N
1646428435.9,286046999.9,N
1646428455.7,286046998.1,N
1646428475.6,286047000.3,N
1646428495.4,286047002.7,N
1646428515.3,286047002.8,N
1646428535.1,286047000.2,N
1646428536.0,286047000.2,N
1646428555.8,286047001.9,N
1646428575.7,286047001.4,N
1646428595.5,286046999.8,N
1646428615.3,286047002.5,N
1646428635.2,286047002.2,N
1646428655.0,286047002.4,N
1646428655.9,286047002.4,N
1646428675.8,286047000.2,N
1646428695.6,286047002.3,N
1646428715.4,286047001.3,N
1646428735.3,286047003.5,N
1646428755.1,286047001.5,N
1646428775.9,286047000.3,N
1646428795.7,286047000.4,N
1646428815.5,286047000.5,N
1646428835.4,286047002.4,N
1646428855.2,286046999.9,N
1646428875.0,286047002.7,N
1646428875.9,286047002.7,N
1646428895.8,286047003.7,N
1646428915.6,286047001.6,N
1646428935.5,286047001.5,N
1646428955.3,286047002.6,N
1646428975.1,286047003.1,N
1646428995.9,286047004.8,Y
1646429015.7,286047001.3,P
1646429035.6,286047002.1,P
1646429055.4,286047000.5,N
1646429075.2,286046998.9,N
1646429095.1,286046999.9,N
1646429096.0,286046999.9,N
1646429115.8,286047000.6,N
1646429135.6,286046998.5,N
1646429155.5,286047000.3,N
1646429175.3,286047000.9,N
1646429195.2,286047000.1,N
1646429215.9,286047002.3,N
1646429235.7,286047000.4,N
1646429255.6,286047000.8,N
1646429275.4,286047002.0,N
1646429295.2,286047001.6,N
1646429315.1,286047001.3,N
1646429316.0,286047001.3,N
1646429335.8,286047001.4,N
1646429355.7,286047004.3,Y
1646429375.5,286047002.7,P
1646429395.3,286046998.2,N
1646429415.2,286047002.2,N
1646429435.0,286047002.5,N
1646429435.9,286047002.5,N
1646429455.8,286047002.5,N
1646429475.6,286047001.0,N
1646429495.4,286047002.8,N
1646429515.3,286047001.0,N
1646429535.1,286046999.9,N
1646429555.8,286047001.2,N
1646429575.7,286047000.8,N
1646429595.5,286046998.5,N
1646429615.4,286047000.7,N
1646429635.2,286046998.6,N
1646429655.0,286047000.3,N
1646429655.9,286047000.3,N
1646429675.8,286047000.7,N
1646429695.6,286047001.0,N
1646429715.4,286047001.1,N
1646429735.3,286046998.1,N
1646429755.1,286047000.2,N
1646429775.9,286047000.3,N
1646429795.7,286047002.7,N
1646429815.5,286047002.4,N
1646429835.4,286047000.8,N
1646429855.2,286047000.9,N
1646429875.0,286047001.6,N
1646429875.9,286047001.6,N
1646429895.8,286047002.4,N
1646429915.2,286047002.0,N
1646429935.0,286047003.8,N
1646429935.9,286047003.8,N
1646429955.8,286047002.0,N
1646429975.6,286047000.3,N
1646429995.4,286046999.9,N
1646430015.3,286047002.6,N
1646430035.1,286047004.3,Y
1646430055.9,286047000.6,P
1646430075.7,286046998.2,P
1646430095.5,286047000.2,N
1646430115.4,286047000.5,N
1646430135.2,286047000.5,N
1646430155.0,286046999.7,N
1646430155.9,286046999.7,N
1646430175.8,286047000.0,N
1646430195.6,286046999.7,N
1646430215.5,286047002.8,Y
1646430235.3,286047000.5,P
1646430255.1,286047000.4,N
1646430275.9,286046998.3,P
1646430295.7,286046999.0,N
1646430315.6,286046996.8,Y
1646430335.4,286046999.1,P
1646430355.2,286046999.3,N
1646430375.1,286046996.8,P
1646430376.0,286046996.8,N
1646430395.8,286046998.3,N
1646430415.6,286046999.0,N
1646430435.5,286046998.3,N
1646430455.3,286046999.6,N
1646430475.2,286046998.5,N
1646430495.0,286046998.5,N
1646430495.9,286046998.5,N
1646430515.7,286046998.8,N
1646430535.6,286046999.0,N
1646430555.4,286046999.2,N
1646430575.3,286046998.6,N
1646430595.1,286046998.6,N
1646430596.0,286046998.6,N
1646430615.8,286047000.9,N
1646430635.7,286047000.2,N
1646430655.5,286047000.4,N
1646430675.3,286047000.4,N
1646430695.2,286047000.2,N
1646430715.0,286046998.2,N
1646430715.9,286046998.2,N
1646430735.8,286047002.7,N
1646430755.6,286047001.9,N
1646430775.4,286047001.8,N
1646430795.3,286047000.0,N
1646430815.1,286046999.8,N
1646430835.8,286047000.9,N
1646430855.7,286047000.1,N
1646430875.5,286047001.9,N
1646430895.4,286046999.9,N
1646430915.2,286047001.1,N
1646430935.0,286047000.5,N
1646430935.9,286047000.5,N
1646430955.8,286046998.3,N
1646430975.6,286046998.8,N
1646430995.4,286046999.3,N
1646431015.3,286046999.0,N
1646431035.1,286047000.0,N
1646431055.9,286046999.8,N
1646431075.7,286047000.2,N
1646431095.5,286046998.5,N
1646431115.4,286047000.0,N
1646431135.2,286047000.8,N
1646431155.0,286046998.3,N
1646431155.9,286046998.3,N
1646431175.8,286047000.9,N
1646431195.6,286047000.6,N
